一网星座-0709星 (ONEWEB-0709)

导读

ONEWEB-0709是英国OneWeb公司的低轨宽带通信卫星,于北京时间2023年1月10日由SpaceX猎鹰9号火箭在美国卡纳维拉尔角发射入轨,属于OneWeb全球卫星星座组网的一部分。该卫星重约148公斤,运行在1200公里近地轨道,配备Ku/ka波段天线,旨在为全球提供无缝互联网接入服务,覆盖航空、海事、应急通信等领域,助力OneWeb实现全球卫星宽带网络覆盖目标。

基本信息
目录编号:
55172
目录名称:
ONEWEB-0709
国际标识:
2023-004AJ
轨道中心:
EARTH
卫星名称:
一网星座-0709星
卫星全名:
一网星座-0709星 (ONEWEB-0709)
卫星状态:
在轨 (已飞行1341 天)
发射日期:
2023-01-10 UTC
国别 :
英国 (GB)
星等 :
--
该卫星已列入 空间交会检测服务 Space Conjunction Data Service (SCDS) ,当前飞行风险评估等级: 无高风险
轨道信息
数据来源 国际轨道数据 AOE轨道数据
星历时间 2026-09-11T21:44:05+0800
13小时前
查看轨道信息
2026-09-07T03:00:00+0800
5天前
查看轨道信息
半长轴 7595.82km 7595.826km
偏心率 0.0001219 0.0001372
轨道倾角 87.896° 87.896°
近地点辐角 74.206° 71.557°
升交点赤经 3.900° 4.847°
平近点角 285.921° 51.568°
近地点 1216.757km 1216.646km
远地点 1218.609km 1218.732km
周期 109.805分钟 109.805分钟
每日圈数 13.11417 13.114154
详细信息
平衡模式:
三轴稳定
覆盖范围:
全球
运营商:
一网卫星公司
运营商所在国:
英国
制造商(研发单位):
一网卫星公司
制造商所在国:
英国
使用方式:
暂无
卫星简介
OneWeb卫星网络由648颗重约125公斤的微型卫星组成,运行在1200公里的轨道上。 每颗卫星都能够提供至少每秒8千兆位的吞吐量,以使用其高吞吐量的Ku频段有效载荷为家庭和移动平台提供互联网接入。该卫星仍在工作。
2D轨道图
3D轨道图
轨道高度分析图
轨道倾角分析图
轨道综合分析图
查看轨道综合分析图
与全量物体交会距离演化趋势
与全量物体交会风险概率演化趋势